Regional Weather Roundup
Issued by NWS Northern Indiana

Home | Current Version | Previous Version | Text Only | Print | Product List | Glossary Off
Versions: 1 2 3 4 5 6 7 8 9 10 11 12 13 14 15 16 17 18 19 20 21 22 23 24 25 26 27 28 29 30 31 32 33 34 35 36 37 38 39 40 41 42 43 44 45 46 47 48 49 50

000
ASUS43 KIWX 271800
RWRIWX

KIWX WEATHER ROUNDUP
NATIONAL WEATHER SERVICE NORTHERN INDIANA
200 PM EDT SAT MAY 27 2017

NOTE: "FAIR" INDICATES FEW OR NO CLOUDS BELOW 12,000 FEET WITH NO
SIGNIFICANT WEATHER AND/OR OBSTRUCTIONS TO VISIBILITY.

* THESE STATIONS ARE NOT UNDER NWS QUALITY CONTROL. THEY ALSO MAY NOT
  REPORT WEATHER SUCH AS PRECIPITATION OR FOG.

INZ001>027-271900-
NORTHERN INDIANA

CITY           SKY/WX    TMP DP  RH WIND       PRES   REMARKS
GARY*          PTSUNNY   66  57  72 N7        29.92S
MICHIGAN CITY* CLOUDY    68  61  77 NW6       29.92R
SOUTH BEND     CLOUDY    73  64  73 VRB6      29.90S
6HR MIN TEMP:  59; 6HR MAX TEMP:  73;

GOSHEN         CLOUDY    70  59  68 VRB3      29.90S
6HR MIN TEMP:  61; 6HR MAX TEMP:  72;

MONTICELLO*    CLOUDY    65  60  83 CALM      29.92R
6HR MIN TEMP:  61; 6HR MAX TEMP:  65;

FORT WAYNE     CLOUDY    71  63  75 E6        29.90R
6HR MIN TEMP:  61; 6HR MAX TEMP:  72; 6HR PCP: TRACE;


$$
INZ028>050-271900-
CENTRAL INDIANA

CITY           SKY/WX    TMP DP  RH WIND       PRES   REMARKS
LAFAYETTE      CLOUDY    68  62  81 N5        29.91S
6HR MIN TEMP:  60; 6HR MAX TEMP:  68;

KOKOMO*        CLOUDY    69  63  81 N6        29.92R
6HR MIN TEMP:  63; 6HR MAX TEMP:  71;

MUNCIE*        CLOUDY    74  63  68 NW5       29.89S
6HR MIN TEMP:  68; 6HR MAX TEMP:  76;

INDIANAPOLIS   MOSUNNY   75  63  66 NW9       29.88F
6HR MIN TEMP:  68; 6HR MAX TEMP:  76;


$$
MIZ043>046-050>051-056>058-064>065-071>073-077>080-271900-
SOUTHWEST LOWER MICHIGAN

CITY           SKY/WX    TMP DP  RH WIND       PRES   REMARKS
BATTLE CREEK   CLOUDY    72  58  61 VRB3      29.91S
6HR MIN TEMP:  62; 6HR MAX TEMP:  72;

BENTON HARBOR  PTSUNNY   74  58  57 SE6       29.89F
6HR MIN TEMP:  58; 6HR MAX TEMP:  75;

COLDWATER*     CLOUDY    71  59  65 E5        29.90F
6HR MIN TEMP:  61; 6HR MAX TEMP:  72;

HILLSDALE*     CLOUDY    68  57  68 E8        29.91S
HOLLAND        MOSUNNY   75  57  53 VRB3      29.89F
6HR MIN TEMP:  59; 6HR MAX TEMP:  75;

GRAND RAPIDS   PTSUNNY   73  55  53 S3        29.90S
6HR MIN TEMP:  61; 6HR MAX TEMP:  75;

KALAMAZOO      CLOUDY    72  56  57 S3        29.90F
6HR MIN TEMP:  61; 6HR MAX TEMP:  73;

STURGIS*       CLOUDY    70  60  71 NE5       29.90R
6HR MIN TEMP:  59; 6HR MAX TEMP:  70;

THREE RIVERS*  CLOUDY    70  58  65 NE3       29.91S
6HR MIN TEMP:  60; 6HR MAX TEMP:  71;


$$
OHZ001>008-015>018-024>025-271900-
NORTHWEST OHIO

CITY           SKY/WX    TMP DP  RH WIND       PRES   REMARKS
DEFIANCE       PTSUNNY   72  61  68 VRB5      29.89S
6HR MIN TEMP:  62; 6HR MAX TEMP:  73;

FINDLAY        MOSUNNY   75  60  59 SE8       29.88S
6HR MIN TEMP:  62; 6HR MAX TEMP:  76;

TOLEDO EXPRESS PTSUNNY   73  59  61 E9        29.89F
6HR MIN TEMP:  61; 6HR MAX TEMP:  73;

TOLEDO METCALF SUNNY     72  56  57 E10G18    29.91S
6HR MIN TEMP:  63; 6HR MAX TEMP:  73;

LIMA           PTSUNNY   73  65  75 E6        29.89S
6HR MIN TEMP:  62; 6HR MAX TEMP:  74;


$$
AND FOR LAKE MICHIGAN COASTAL AND OPEN LAKE BUOY OBSERVATIONS

STATION/POSITION TEMP    WIND        PRES    VSBY  WAVE
                 AIR SEA DIR/SP/G                  HT/PER
                 (F)     (DEG/KT/KT) (MB)    (MI)  (FT/S)
CALUMET HARBOR    62     340/  4/  5 1013.0R
MICHIGAN CITY     57     270/  5/  5   N/A
BURNS HARBOR      54     340/  3/  5 1013.9R
SOUTH LAKE BUOY   52 51   10/  4/  4 1013.1          0
4 MI NW BRIDGMAN  59 59  330/  4/  4 1013.0R         1
MICHIGAN CITY     53 56  310/  6/  8   N/A           1

$$
&&



USA.gov is the U.S. government's official web portal to all federal, state and local government web resources and services.